VHXCJ YPAD-PLCH

Flight info

Callsign VHXCJ
Flight time N/A
Altitude 41000
Route AVDEN H247 CULIN Y59 TESAT B450 NOBAR A579 VIRAR/N0482F450 A579 NN B581 WACOS DCT 00N160W
Aircraft C750/M-SBDE3FGHRWXY/S

Departure

Time 2025-09-05 10:47
Airport Adelaide International Airport (YPAD)

Arrival

Time N/A
Airport Cassidy International Airport (PLCH)
Time Latitude Longitude Altitude Speed Heading
2025-09-05 10:24 -34.93663 138.54131 24 ft 0 kts 196°
2025-09-05 10:32 -34.93662 138.54132 23 ft 0 kts 196°
2025-09-05 10:36 -34.93744 138.54171 27 ft 12 kts 140°
2025-09-05 10:36 -34.93827 138.54149 23 ft 12 kts 212°
2025-09-05 10:37 -34.93993 138.54089 23 ft 16 kts 230°
2025-09-05 10:37 -34.94156 138.53852 21 ft 21 kts 230°
2025-09-05 10:38 -34.94330 138.53599 19 ft 18 kts 231°
2025-09-05 10:38 -34.94477 138.53383 19 ft 18 kts 232°
2025-09-05 10:39 -34.94464 138.53129 21 ft 14 kts 302°
2025-09-05 10:40 -34.94460 138.52992 19 ft 0 kts 227°
2025-09-05 10:40 -34.94495 138.52956 19 ft 11 kts 218°
2025-09-05 10:41 -34.94687 138.52775 17 ft 19 kts 217°
2025-09-05 10:41 -34.94870 138.52601 16 ft 15 kts 217°
2025-09-05 10:42 -34.95061 138.52417 18 ft 17 kts 215°
2025-09-05 10:42 -34.95244 138.52251 16 ft 15 kts 217°
2025-09-05 10:43 -34.95392 138.52215 17 ft 9 kts 154°
2025-09-05 10:43 -34.95458 138.52297 19 ft 0 kts 51°
2025-09-05 10:45 -34.94947 138.53036 19 ft 120 kts 50°
2025-09-05 10:45 -34.93850 138.54706 486 ft 131 kts 54°
2025-09-05 10:46 -34.92654 138.56833 826 ft 160 kts 57°
2025-09-05 10:46 -34.92130 138.59064 2188 ft 135 kts 101°
2025-09-05 10:47 -34.92679 138.61483 2685 ft 155 kts 109°
2025-09-05 10:47 -34.93961 138.63606 3247 ft 172 kts 115°
2025-09-05 10:48 -34.95711 138.67630 4183 ft 187 kts 113°
2025-09-05 10:49 -34.97001 138.70445 4903 ft 193 kts 113°
2025-09-05 10:49 -34.98318 138.73338 5586 ft 196 kts 114°
2025-09-05 10:50 -34.99634 138.76233 6221 ft 197 kts 114°
2025-09-05 10:50 -35.01016 138.79282 6965 ft 216 kts 115°
2025-09-05 10:50 -35.01760 138.80921 7427 ft 226 kts 115°
2025-09-05 10:51 -35.03348 138.84421 8525 ft 244 kts 116°
2025-09-05 10:52 -35.05835 138.89976 10343 ft 250 kts 114°
2025-09-05 10:52 -35.05946 138.94185 11328 ft 251 kts 83°
2025-09-05 10:53 -35.05723 138.98407 12421 ft 252 kts 85°
2025-09-05 10:53 -35.05485 139.02861 13313 ft 276 kts 85°
2025-09-05 10:53 -35.05357 139.05246 13841 ft 286 kts 85°
2025-09-05 10:54 -35.04952 139.12802 15487 ft 306 kts 85°
2025-09-05 10:55 -35.04668 139.18020 16722 ft 315 kts 85°
2025-09-05 10:55 -35.04521 139.20709 17378 ft 319 kts 85°
2025-09-05 10:56 -35.04067 139.28929 19340 ft 329 kts 85°
2025-09-05 10:56 -35.03912 139.31724 19968 ft 332 kts 85°
2025-09-05 10:57 -35.03435 139.40221 21911 ft 340 kts 86°
2025-09-05 10:57 -35.03097 139.46195 22373 ft 375 kts 86°
2025-09-05 10:58 -35.02713 139.52896 22643 ft 411 kts 86°
2025-09-05 10:58 -35.02309 139.59884 23879 ft 418 kts 87°
2025-09-05 10:59 -35.01884 139.67196 24088 ft 450 kts 87°
2025-09-05 10:59 -35.01173 139.79187 24099 ft 497 kts 86°
2025-09-05 11:00 -35.00918 139.83452 24098 ft 511 kts 86°
2025-09-05 11:00 -35.00384 139.92300 24100 ft 534 kts 86°
2025-09-05 11:01 -34.99823 140.01448 24320 ft 540 kts 86°
2025-09-05 11:03 -34.97715 140.35885 27032 ft 506 kts 91°
2025-09-05 11:05 -34.97985 140.70905 29506 ft 530 kts 93°
2025-09-05 11:07 -34.98156 141.07737 31619 ft 559 kts 93°
2025-09-05 11:09 -34.98211 141.46435 33773 ft 581 kts 91°
2025-09-05 11:11 -34.98140 141.86057 34350 ft 588 kts 91°
2025-09-05 11:13 -34.97937 142.25939 34536 ft 590 kts 90°
2025-09-05 11:15 -34.97612 142.65042 37105 ft 551 kts 90°
2025-09-05 11:17 -34.97198 143.01314 40050 ft 531 kts 90°
2025-09-05 11:19 -34.96730 143.37761 41358 ft 560 kts 90°
2025-09-05 11:21 -34.96172 143.77056 41295 ft 593 kts 90°
2025-09-05 11:22 -34.95568 144.12352 41345 ft 595 kts 90°
2025-09-05 11:25 -34.94658 144.56995 41349 ft 576 kts 90°
2025-09-05 11:26 -34.93860 144.90803 41360 ft 568 kts 89°
2025-09-05 11:29 -34.92684 145.33881 41366 ft 565 kts 89°
2025-09-05 11:31 -34.91502 145.71986 41393 ft 563 kts 89°
2025-09-05 11:33 -34.90208 146.09890 41393 ft 558 kts 88°
2025-09-05 11:34 -34.86498 146.43338 41404 ft 577 kts 78°
2025-09-05 11:37 -34.79090 146.86234 41403 ft 576 kts 78°
2025-09-05 11:38 -34.73192 147.19495 41414 ft 576 kts 77°
2025-09-05 11:41 -34.65432 147.62217 41423 ft 580 kts 77°
2025-09-05 11:42 -34.59210 147.95864 41418 ft 586 kts 77°
2025-09-05 11:45 -34.51058 148.39122 41408 ft 585 kts 77°
2025-09-05 11:46 -34.44615 148.72699 41417 ft 584 kts 76°
2025-09-05 11:49 -34.36234 149.15598 41432 ft 583 kts 76°
2025-09-05 11:50 -34.29602 149.48954 41454 ft 583 kts 76°
2025-09-05 11:53 -34.20961 149.91676 41481 ft 582 kts 76°
2025-09-05 11:54 -34.14147 150.24802 41495 ft 581 kts 75°
2025-09-05 11:57 -34.05276 150.67214 41517 ft 580 kts 75°
2025-09-05 11:58 -33.98321 150.99930 41492 ft 579 kts 75°
2025-09-05 12:01 -33.87847 151.41519 41495 ft 578 kts 70°
2025-09-05 12:02 -33.78757 151.73450 41480 ft 577 kts 67°
2025-09-05 12:05 -33.61621 152.11310 41490 ft 574 kts 59°
2025-09-05 12:06 -33.48138 152.40561 41481 ft 574 kts 58°
2025-09-05 12:09 -33.30718 152.78041 41476 ft 573 kts 58°
2025-09-05 12:10 -33.17099 153.07066 41470 ft 573 kts 58°
2025-09-05 12:12 -33.01442 153.40149 41476 ft 574 kts 57°
2025-09-05 12:14 -32.85708 153.73093 41468 ft 573 kts 57°
2025-09-05 12:16 -32.70544 154.04564 41467 ft 572 kts 57°
2025-09-05 12:18 -32.54670 154.37223 41465 ft 572 kts 56°
2025-09-05 12:20 -32.38708 154.69774 41458 ft 572 kts 56°
2025-09-05 12:22 -32.22649 155.02228 41448 ft 573 kts 56°
2025-09-05 12:24 -32.06508 155.34568 41446 ft 573 kts 56°
2025-09-05 12:26 -31.90293 155.66776 41442 ft 572 kts 55°
2025-09-05 12:28 -31.73995 155.98874 41431 ft 572 kts 55°
2025-09-05 12:30 -31.57593 156.30907 41422 ft 572 kts 54°
2025-09-05 12:32 -31.41179 156.62696 41415 ft 572 kts 54°
2025-09-05 12:34 -31.24631 156.94480 41397 ft 572 kts 54°
2025-09-05 12:36 -31.08065 157.26042 41397 ft 572 kts 53°
2025-09-05 12:38 -30.91363 157.57595 41390 ft 572 kts 53°
2025-09-05 12:40 -30.74617 157.88971 41377 ft 571 kts 53°
2025-09-05 12:42 -30.57797 158.20238 41359 ft 571 kts 52°
2025-09-05 12:44 -30.40922 158.51359 41350 ft 571 kts 52°
2025-09-05 12:46 -30.23994 158.82335 41340 ft 570 kts 52°
2025-09-05 12:49 -30.04877 159.17032 41332 ft 570 kts 52°
2025-09-05 12:50 -29.89921 159.43970 41318 ft 569 kts 51°
2025-09-05 12:53 -29.70645 159.78425 41307 ft 570 kts 51°
2025-09-05 12:54 -29.55592 160.05131 41300 ft 570 kts 51°
2025-09-05 12:56 -29.38311 160.35578 41295 ft 570 kts 51°
2025-09-05 12:58 -29.20948 160.65941 41280 ft 570 kts 50°
2025-09-05 13:00 -29.03514 160.96206 41286 ft 571 kts 50°
2025-09-05 13:02 -28.85995 161.26399 41270 ft 571 kts 50°
2025-09-05 13:05 -28.66176 161.60297 41262 ft 572 kts 50°
2025-09-05 13:06 -28.50703 161.86574 41259 ft 572 kts 50°
2025-09-05 13:09 -28.30729 162.20255 41244 ft 572 kts 49°
2025-09-05 13:11 -28.12921 162.50059 41236 ft 572 kts 49°
2025-09-05 13:12 -27.97283 162.76064 41231 ft 572 kts 49°
2025-09-05 13:15 -27.77070 163.09441 41221 ft 573 kts 49°
2025-09-05 13:17 -27.59015 163.39031 41215 ft 574 kts 49°
2025-09-05 13:18 -27.43126 163.64906 41209 ft 574 kts 49°
2025-09-05 13:21 -27.22706 163.97952 41258 ft 553 kts 49°
2025-09-05 13:22 -27.08436 164.20875 44271 ft 513 kts 49°
2025-09-05 13:25 -26.89405 164.51282 44278 ft 546 kts 49°
2025-09-05 13:26 -26.74258 164.75345 45154 ft 543 kts 49°
2025-09-05 13:29 -26.54423 165.06650 45162 ft 554 kts 49°
2025-09-05 13:30 -26.38765 165.31209 45157 ft 558 kts 49°
2025-09-05 13:33 -26.18454 165.62876 45142 ft 560 kts 49°
2025-09-05 13:34 -26.02595 165.87449 45139 ft 560 kts 49°
2025-09-05 13:37 -25.82147 166.18942 45127 ft 559 kts 49°
2025-09-05 13:38 -25.66214 166.43333 45131 ft 559 kts 49°
2025-09-05 13:41 -25.45677 166.74589 45128 ft 558 kts 49°
2025-09-05 13:42 -25.29670 166.98805 45126 ft 558 kts 49°
2025-09-05 13:45 -25.08989 167.29912 45129 ft 559 kts 48°
2025-09-05 13:46 -24.92876 167.54008 45126 ft 559 kts 48°
2025-09-05 13:48 -24.74394 167.81494 45129 ft 559 kts 48°
2025-09-05 13:50 -24.55862 168.08890 45127 ft 559 kts 48°
2025-09-05 13:53 -24.34958 168.39608 45131 ft 559 kts 48°
2025-09-05 13:54 -24.18731 168.63321 45131 ft 558 kts 48°
2025-09-05 13:57 -23.97755 168.93808 45133 ft 558 kts 48°
2025-09-05 13:58 -23.81411 169.17432 45138 ft 558 kts 48°
2025-09-05 14:01 -23.60345 169.47719 45135 ft 557 kts 47°
2025-09-05 14:02 -23.43970 169.71138 45136 ft 555 kts 47°
2025-09-05 14:04 -23.25282 169.97731 45138 ft 553 kts 47°
2025-09-05 14:06 -23.06524 170.24287 45138 ft 554 kts 47°
2025-09-05 14:09 -22.85340 170.54113 45142 ft 556 kts 47°
2025-09-05 14:10 -22.68795 170.77289 45150 ft 557 kts 47°
2025-09-05 14:13 -22.47450 171.07039 45145 ft 557 kts 47°
2025-09-05 14:14 -22.30842 171.30070 45148 ft 556 kts 47°
2025-09-05 14:17 -22.09445 171.59596 45147 ft 556 kts 47°
2025-09-05 14:18 -21.92765 171.82489 45150 ft 556 kts 47°
2025-09-05 14:21 -21.71270 172.11848 45149 ft 556 kts 47°
2025-09-05 14:22 -21.54532 172.34601 45142 ft 555 kts 47°
2025-09-05 14:25 -21.32978 172.63761 45141 ft 554 kts 47°
2025-09-05 14:26 -21.16208 172.86345 45142 ft 554 kts 47°
2025-09-05 14:29 -20.94621 173.15279 45144 ft 553 kts 47°
2025-09-05 14:30 -20.77810 173.37710 45136 ft 553 kts 46°
2025-09-05 14:33 -20.56150 173.66479 45133 ft 553 kts 46°
2025-09-05 14:34 -20.39243 173.88837 45129 ft 553 kts 46°
2025-09-05 14:37 -20.17497 174.17466 45123 ft 553 kts 46°
2025-09-05 14:38 -20.00563 174.39662 45125 ft 553 kts 46°
2025-09-05 14:40 -19.81182 174.64963 45122 ft 553 kts 46°
2025-09-05 14:42 -19.61781 174.90183 45120 ft 552 kts 46°
2025-09-05 14:44 -19.42373 175.15305 45115 ft 551 kts 46°
2025-09-05 14:47 -19.20530 175.43456 45112 ft 550 kts 46°
2025-09-05 14:48 -19.04360 175.64213 45113 ft 550 kts 46°
2025-09-05 14:50 -18.84923 175.89072 45104 ft 549 kts 46°
2025-09-05 14:52 -18.64631 176.14905 45099 ft 549 kts 46°
2025-09-05 14:54 -18.45963 176.38561 45098 ft 548 kts 46°
2025-09-05 14:57 -18.24034 176.66237 45093 ft 547 kts 46°
2025-09-05 14:58 -18.06986 176.87670 45085 ft 546 kts 46°
2025-09-05 15:00 -17.87512 177.12073 45091 ft 545 kts 46°
2025-09-05 15:02 -17.68050 177.36371 45115 ft 544 kts 46°
2025-09-05 15:04 -17.48730 177.60727 45096 ft 544 kts 46°
2025-09-05 15:06 -17.29420 177.85021 45081 ft 543 kts 46°
2025-09-05 15:08 -17.10127 178.09215 45064 ft 541 kts 46°
2025-09-05 15:10 -16.90865 178.33284 45069 ft 538 kts 46°
2025-09-05 15:12 -16.71702 178.57147 45065 ft 536 kts 46°
2025-09-05 15:14 -16.52538 178.80855 45060 ft 534 kts 45°
2025-09-05 15:16 -16.33344 179.04388 45056 ft 533 kts 45°
2025-09-05 15:19 -16.11776 179.30732 45045 ft 531 kts 46°
2025-09-05 15:21 -15.92621 179.54048 45039 ft 531 kts 46°
2025-09-05 15:23 -15.73460 179.77296 45034 ft 530 kts 46°
2025-09-05 15:25 -15.54287 -179.99515 45028 ft 530 kts 46°
2025-09-05 15:26 -15.37506 -179.79277 45024 ft 530 kts 46°
2025-09-05 15:29 -15.15933 -179.53287 45016 ft 529 kts 46°
2025-09-05 15:30 -14.99130 -179.33072 45004 ft 529 kts 46°
2025-09-05 15:33 -14.77570 -179.07214 45004 ft 529 kts 46°
2025-09-05 15:34 -14.60733 -178.87081 45000 ft 529 kts 46°
2025-09-05 15:37 -14.39097 -178.61283 44993 ft 529 kts 46°
2025-09-05 15:38 -14.22267 -178.41275 44990 ft 528 kts 46°
2025-09-05 15:41 -14.00620 -178.15611 44993 ft 528 kts 46°
2025-09-05 15:42 -13.83780 -177.95702 44980 ft 528 kts 46°
2025-09-05 15:45 -13.62089 -177.70127 44978 ft 528 kts 46°
2025-09-05 15:46 -13.47628 -177.53121 44975 ft 528 kts 46°
2025-09-05 15:49 -13.23487 -177.24807 44968 ft 528 kts 46°
2025-09-05 15:50 -13.06582 -177.05034 44966 ft 527 kts 46°
2025-09-05 15:53 -12.84807 -176.79660 44968 ft 527 kts 46°
2025-09-05 15:54 -12.67829 -176.59933 44965 ft 527 kts 46°
2025-09-05 15:57 -12.46036 -176.34674 44961 ft 528 kts 46°
2025-09-05 15:59 -12.26607 -176.12213 44957 ft 528 kts 47°
2025-09-05 16:01 -12.07118 -175.89738 44955 ft 528 kts 47°
2025-09-05 16:02 -11.90069 -175.70119 44958 ft 529 kts 47°
2025-09-05 16:05 -11.68140 -175.44946 44958 ft 528 kts 47°
2025-09-05 16:06 -11.51065 -175.25389 44963 ft 529 kts 47°
2025-09-05 16:09 -11.29059 -175.00241 44962 ft 529 kts 47°
2025-09-05 16:10 -11.11910 -174.80687 44957 ft 530 kts 47°
2025-09-05 16:13 -10.89804 -174.55536 44961 ft 531 kts 47°
2025-09-05 16:14 -10.72587 -174.35990 44960 ft 531 kts 47°
2025-09-05 16:17 -10.50433 -174.10892 44956 ft 531 kts 47°
2025-09-05 16:18 -10.33208 -173.91417 44956 ft 530 kts 47°
2025-09-05 16:21 -10.11054 -173.66421 44953 ft 530 kts 47°
2025-09-05 16:22 -9.93834 -173.47030 44963 ft 529 kts 47°
2025-09-05 16:25 -9.71679 -173.22132 44956 ft 529 kts 47°
2025-09-05 16:26 -9.54420 -173.02771 44958 ft 529 kts 47°
2025-09-05 16:29 -9.32269 -172.77955 44952 ft 528 kts 47°
2025-09-05 16:30 -9.15039 -172.58679 44954 ft 528 kts 47°